Theta_e
306 308 308 308 305 301 303 305 305 309 309 319 325 328 331 336 336 338 341 339 335 334 337 339 340 346 348 352 357 357 356 356 353 354 354 354 353 353 350 345 344 345 343 341
307 310 313 312 313 307 310 307 315 314 315 326 330 334 331 330 333 336 337 343 346 347 347 343 339 343 349 352 357 353 358 355 357 355 355 352 351 350 348 346 344 343 341 340
305 307 308 306 311 313 316 317 317 311 319 327 329 330 328 331 330 329 330 333 339 347 351 349 339 347 350 352 352 349 348 347 351 355 349 350 348 347 346 341 343 343 341 339
306 307 299 308 319 318 317 319 320 322 324 326 326 328 328 329 330 332 333 332 333 339 348 353 349 348 355 355 355 356 353 355 352 352 350 350 346 345 344 342 341 341 340 339
305 304 306 312 316 318 317 317 324 324 322 320 322 328 328 330 330 332 334 336 333 333 343 354 354 355 356 355 356 355 356 357 356 351 350 347 343 343 340 340 342 340 339 337
305 302 300 311 317 322 319 309 325 326 323 321 322 318 323 328 328 331 334 337 337 337 338 349 355 356 355 354 354 356 356 357 356 353 352 349 344 340 339 343 341 338 336 335
306 304 307 313 320 321 309 311 324 327 324 322 321 322 325 328 329 332 334 337 342 346 339 349 358 357 354 355 354 357 358 356 353 352 349 346 343 340 339 341 337 335 333 332
306 304 302 318 318 315 321 324 327 328 327 323 324 325 326 328 330 332 334 338 346 348 348 350 359 358 357 355 358 360 358 352 342 338 337 334 333 334 334 332 333 330 328 327
311 313 318 320 320 322 322 324 327 328 326 326 324 324 327 328 330 331 333 343 350 351 351 354 357 359 357 360 359 354 349 339 336 335 335 332 330 327 326 328 329 331 326 323
314 317 319 321 324 324 325 323 327 326 326 326 324 325 327 328 330 330 334 344 347 350 350 351 355 357 357 357 355 349 343 337 336 337 335 334 333 329 325 323 326 328 324 322
315 318 322 322 324 325 323 326 327 329 328 326 325 326 328 328 331 332 336 344 345 347 349 350 350 352 355 355 350 346 343 338 336 337 335 333 331 329 326 326 325 327 326 324
311 319 322 323 325 325 326 325 327 327 328 327 327 328 329 330 334 335 338 344 343 346 347 348 349 349 349 351 347 343 338 336 335 334 335 332 323 321 311 316 314 309 309 318
320 323 325 327 327 326 326 327 328 328 328 328 329 329 329 330 333 332 337 341 342 344 347 348 348 343 345 346 342 337 334 334 333 330 333 324 323 322 315 310 305 302 302 304
319 319 318 322 320 320 322 324 324 328 329 328 328 330 331 330 332 333 335 339 340 344 345 348 344 341 340 346 345 343 342 322 333 332 329 325 324 325 320 317 317 313 303 305
315 316 316 317 316 317 319 320 323 325 327 328 331 331 332 332 334 336 337 337 343 343 346 344 340 339 342 344 342 338 340 336 335 332 330 326 328 324 322 323 322 319 314 309
315 315 316 316 317 319 320 321 323 326 328 330 331 333 335 336 338 336 337 341 342 341 343 340 338 337 342 343 341 338 335 327 328 330 329 327 326 324 324 327 327 325 321 318
313 312 315 314 316 316 323 325 326 327 329 330 333 336 338 339 340 336 337 344 346 344 343 340 337 341 341 338 340 338 334 330 328 328 328 326 328 329 332 330 328 325 322 320
314 315 317 317 317 321 327 328 330 331 331 335 337 337 337 338 340 340 337 343 345 344 344 344 343 344 343 342 343 339 337 333 330 330 328 328 332 331 331 331 329 322 322 317
331 331 332 332 332 332 332 332 333 336 337 336 336 335 338 338 341 343 343 341 341 341 341 341 334 337 339 340 338 337 333 331 330 327 329 326 330 331 330 329 326 323 322 319
326 329 330 331 332 333 333 335 336 333 335 336 336 335 336 337 338 338 339 339 342 343 343 342 339 340 339 338 334 336 332 331 328 328 332 331 332 331 330 318 323 322 320 319
326 328 329 329 329 331 331 332 331 332 332 333 334 334 334 334 335 337 336 334 341 340 340 332 339 338 337 332 334 334 332 330 332 334 332 333 332 332 328 326 323 321 319 319
324 325 327 328 328 329 331 334 333 329 327 327 328 330 331 332 333 334 335 334 338 319 335 338 338 331 332 330 332 333 333 334 336 335 334 332 330 327 325 323 322 321 321 322
325 325 327 328 327 327 331 330 329 330 327 327 328 329 329 329 329 328 328 336 336 328 336 337 327 322 324 330 335 336 336 337 335 334 333 331 329 327 326 325 324 324 323 323
324 325 326 329 329 328 327 328 329 329 330 331 332 331 330 332 334 333 334 325 316 321 333 326 323 320 321 327 334 334 333 333 334 332 331 316 330 328 326 325 324 325 325 322
323 325 327 328 327 328 329 330 329 330 331 331 332 335 335 336 334 334 328 327 316 323 324 317 318 315 328 330 334 331 329 328 327 326 325 325 325 325 325 325 325 326 325 326
322 324 325 327 327 328 327 325 327 327 327 327 331 334 337 336 333 331 326 317 323 319 322 321 322 323 327 327 326 325 325 325 323 324 323 326 327 327 328 327 327 325 325 325
325 312 326 326 328 327 327 324 324 326 325 326 326 334 335 333 330 323 314 319 321 322 322 323 322 321 325 324 324 325 325 325 316 327 325 326 326 327 327 327 327 327 326 326
Wind_Speed
3 1 3 1 5 9 7 2 4 3 3 7 9 7 9 8 10 11 11 10 8 6 1 4 7 9 12 14 16 18 18 17 14 12 12 14 16 15 12 12 11 13 13 12
4 5 4 5 5 6 4 5 3 2 2 2 3 3 10 10 10 11 11 10 8 7 8 5 6 10 12 14 14 15 17 16 14 16 16 16 16 15 14 13 14 14 13 14
5 2 0 4 0 1 1 2 2 3 2 2 4 4 6 7 9 9 9 8 7 6 6 5 5 11 13 15 15 16 14 13 15 16 15 16 16 16 15 15 15 13 13 14
4 4 6 3 3 5 4 2 5 3 3 1 2 3 3 6 10 11 10 7 9 6 6 6 6 8 12 15 16 16 16 12 11 15 17 17 17 16 15 14 14 13 13 14
3 5 3 3 5 6 6 5 10 7 5 2 2 2 3 7 9 9 11 8 4 7 8 4 6 12 13 13 15 15 16 14 13 16 17 17 18 17 14 14 13 13 14 14
3 4 6 3 4 4 2 5 12 9 7 2 1 4 2 8 11 11 12 11 11 9 5 5 2 7 12 14 14 16 14 14 12 14 16 17 15 14 13 15 14 12 13 13
4 5 3 3 7 6 6 1 9 12 9 6 3 2 4 9 9 9 10 14 12 10 5 5 1 5 6 10 14 14 13 12 11 9 8 5 6 8 12 12 12 12 12 11
3 4 7 6 7 7 3 3 4 7 8 6 3 3 4 6 8 9 10 12 12 11 11 6 1 3 6 9 8 11 12 9 11 12 11 11 11 7 3 6 13 13 11 9
5 1 2 3 2 1 1 3 4 5 5 4 2 1 5 6 7 8 9 9 8 7 9 11 7 4 8 6 8 11 13 15 13 16 15 18 19 13 6 1 5 9 10 10
3 2 3 3 3 1 2 2 7 6 6 5 0 3 7 8 6 8 9 7 7 8 8 9 9 9 7 5 9 12 13 16 16 16 15 9 8 12 15 10 5 6 11 11
4 3 6 3 3 2 4 6 6 6 5 5 3 4 6 8 8 7 8 7 7 8 7 9 8 9 8 6 7 6 7 10 11 9 11 9 7 11 13 14 17 12 12 12
3 1 3 3 1 1 3 6 6 6 6 6 6 7 6 8 8 7 8 9 9 10 9 7 7 6 6 4 6 4 6 7 7 8 9 8 9 6 15 8 13 8 8 10
3 2 6 7 7 4 4 2 3 5 6 7 6 7 7 7 7 7 9 10 10 10 10 9 6 5 4 5 7 6 6 7 7 9 9 10 10 11 12 7 9 7 9 11
4 5 7 6 2 9 9 8 6 8 7 7 7 7 7 7 9 9 11 11 10 9 9 6 4 3 5 6 7 9 8 6 8 8 7 8 10 11 12 13 11 9 5 3
12 9 14 15 13 14 12 11 11 9 8 8 7 8 8 10 11 11 10 8 8 9 7 4 4 4 4 5 5 5 6 5 6 6 6 7 7 8 11 11 11 9 8 5
14 11 10 8 7 10 10 11 10 10 10 9 9 10 11 10 11 10 9 8 8 8 7 8 7 6 7 5 3 4 5 9 7 4 6 7 7 9 10 11 12 11 11 11
10 10 8 8 9 11 10 9 8 10 10 10 12 12 11 11 9 7 9 9 10 9 5 7 7 5 7 7 10 6 6 6 10 6 7 7 7 9 10 11 11 10 11 11
8 12 11 11 12 11 11 9 8 9 11 13 13 13 12 11 11 9 9 8 9 10 8 8 7 6 8 11 10 7 7 7 8 8 8 9 11 10 10 11 12 12 10 9
9 8 8 8 7 9 10 11 11 11 12 12 13 15 13 11 10 9 6 7 11 12 8 7 8 9 8 9 9 8 8 9 7 7 7 10 10 10 10 10 11 11 10 10
11 11 11 11 10 9 11 11 11 11 11 12 12 12 12 7 5 6 6 10 10 8 4 4 7 8 7 9 12 9 10 10 9 8 8 11 10 10 10 10 10 10 10 10
12 12 12 12 12 11 9 9 9 10 10 9 8 7 7 4 4 4 5 6 6 6 6 5 6 5 5 6 7 7 8 8 9 11 11 11 10 10 10 10 9 9 9 9
11 11 12 12 11 11 11 9 7 6 6 6 6 4 4 4 4 4 6 7 5 2 3 4 4 7 6 10 5 8 8 10 10 10 10 10 10 10 10 10 10 9 9 9
9 11 12 12 11 11 8 7 7 6 5 5 6 4 3 3 4 5 6 3 4 3 4 3 6 11 12 6 7 10 12 11 11 10 10 10 10 9 9 9 9 8 7 7
11 12 12 11 10 8 8 8 7 5 5 5 5 4 4 4 3 2 4 5 5 2 2 4 7 12 8 4 8 9 10 10 10 9 8 8 7 7 6 7 6 6 6 7
10 11 10 11 9 7 9 9 8 6 6 5 5 3 3 2 2 2 3 3 4 3 4 6 8 4 6 7 7 8 7 7 7 7 7 7 7 7 6 7 7 7 8 8
9 7 7 8 7 6 6 5 5 5 5 6 4 2 1 2 3 3 3 5 5 4 4 2 3 1 2 4 6 7 7 6 5 5 5 7 8 7 7 7 7 8 8 7
7 5 6 6 4 6 5 4 5 6 5 6 7 5 1 4 4 4 2 5 4 3 3 2 3 3 3 4 5 4 4 4 1 3 4 4 5 6 6 7 7 7 6 6
Wind_Direction
87 296 140 5 170 180 212 165 229 92 223 348 3 12 32 57 69 68 51 41 24 19 2 217 187 172 177 174 172 171 180 193 196 186 181 163 159 165 160 169 167 169 160 155
64 68 121 100 98 168 165 150 110 135 212 14 8 91 42 38 56 63 65 57 44 22 356 307 196 180 180 179 179 184 199 191 177 180 174 162 154 158 169 172 161 159 159 159
145 15 47 152 110 300 111 184 151 221 85 95 99 37 0 4 15 39 43 42 34 34 49 46 177 170 176 177 178 195 204 186 182 176 176 157 155 166 171 163 159 162 168 170
129 151 215 62 292 239 255 190 207 215 184 151 339 327 359 9 355 1 1 348 338 336 15 80 123 161 168 177 187 200 219 200 178 181 170 162 162 171 168 161 164 166 174 173
184 199 335 204 190 185 202 166 190 182 169 129 328 231 247 351 359 347 340 332 309 302 337 7 131 152 166 182 189 204 217 210 196 187 177 166 167 168 166 166 168 170 171 170
156 191 210 234 161 159 183 228 173 178 182 168 139 236 358 334 338 328 331 331 324 336 341 13 44 162 170 177 197 196 200 217 208 196 182 178 169 160 160 171 168 169 166 167
181 228 239 238 148 153 196 251 162 174 162 165 206 300 317 309 307 317 320 326 333 330 329 353 127 177 201 195 197 213 200 187 183 191 183 179 147 158 159 169 157 160 162 164
143 206 238 151 135 211 45 51 132 154 154 159 202 278 297 308 309 324 328 334 341 335 330 351 15 230 215 213 213 205 180 157 121 113 109 93 54 47 103 150 156 149 155 165
236 322 43 234 322 31 166 147 160 145 138 139 151 314 324 310 321 323 330 325 334 338 322 320 318 259 256 248 185 179 152 132 134 135 140 153 130 138 221 178 178 161 165 171
278 136 254 223 232 223 175 163 154 138 144 165 40 309 290 294 318 321 320 316 318 317 316 309 316 314 287 260 197 164 158 148 158 154 162 171 146 152 137 149 192 196 175 180
261 267 272 241 241 254 162 172 177 183 195 204 244 285 275 283 300 315 301 289 283 286 286 295 309 301 299 267 180 173 158 153 158 164 168 155 151 152 169 181 167 185 193 183
294 280 269 258 329 316 220 213 211 221 215 217 238 269 288 285 284 285 286 278 278 282 286 281 265 282 290 233 182 164 168 151 153 161 164 153 140 110 46 110 142 148 170 185
305 356 255 289 307 315 313 326 233 232 236 262 258 255 266 273 281 281 277 267 262 276 289 291 322 20 57 104 95 110 144 154 165 171 179 155 157 156 134 88 75 124 154 145
303 311 266 242 312 331 315 307 288 273 260 251 272 286 280 279 293 277 255 251 261 264 268 293 334 65 88 114 150 183 183 173 170 182 174 154 172 172 150 136 164 158 88 142
275 264 263 285 295 287 284 280 287 281 272 283 285 288 302 306 297 284 264 236 239 252 251 200 176 171 178 196 208 208 162 171 174 167 145 142 148 144 119 145 152 139 135 151
292 300 289 260 283 302 277 261 246 261 272 279 289 293 296 296 290 282 259 236 226 235 221 202 209 184 176 212 195 157 149 162 144 142 127 131 140 142 148 153 153 163 171 163
267 261 256 271 301 308 288 262 254 265 280 284 281 289 295 292 284 265 246 236 247 255 238 219 220 205 161 187 193 169 157 174 156 154 144 140 153 160 156 159 164 171 175 163
271 280 295 299 301 306 310 303 300 298 289 286 287 286 281 277 271 258 242 249 250 253 243 245 218 215 173 193 200 174 162 177 164 159 149 161 168 162 158 165 174 173 163 144
341 333 337 326 317 305 301 299 296 292 289 291 288 278 276 275 275 256 248 240 253 259 259 229 188 190 188 197 177 166 161 167 159 149 167 154 159 164 163 170 172 172 166 157
353 349 338 336 334 325 311 305 302 300 306 310 303 287 284 284 259 257 255 249 250 259 255 239 208 209 203 175 160 155 155 147 146 153 168 169 165 162 164 166 166 168 171 172
352 344 344 341 331 327 323 326 317 315 322 329 330 331 322 300 265 273 276 271 278 253 252 189 202 194 158 148 154 142 135 146 157 166 166 163 155 165 164 166 170 173 176 178
350 343 336 335 333 332 341 333 330 320 321 346 347 344 306 290 276 275 258 262 294 256 215 199 183 155 152 153 158 152 149 160 162 161 159 159 167 167 168 172 173 175 177 180
338 336 333 331 330 326 335 359 350 338 337 346 337 314 310 328 317 297 295 304 292 265 244 214 164 151 158 158 166 163 164 164 165 164 163 168 170 170 173 176 177 176 179 188
333 330 328 324 325 331 344 341 334 331 332 327 321 320 323 334 340 278 291 311 320 191 175 134 162 157 152 149 168 154 157 166 161 156 161 164 169 169 172 171 181 182 199 199
325 313 326 340 337 339 335 333 323 333 330 313 310 306 333 323 313 11 355 25 42 62 72 100 107 135 161 173 148 149 141 143 143 154 155 165 172 178 185 185 196 203 208 208
318 317 317 312 305 317 338 328 311 315 308 306 313 277 121 150 112 105 97 51 45 72 77 83 123 273 198 137 135 140 147 144 156 170 178 194 201 200 191 196 206 203 209 211
312 303 315 323 332 333 340 319 311 321 307 295 293 299 234 176 150 119 125 76 45 27 55 137 196 209 201 145 136 139 152 154 150 169 177 177 187 197 209 211 218 217 212 222